Time,TemperatureF,DewpointF,PressureIn,WindDirection,WindDirectionDegrees,WindSpeedMPH,WindSpeedGustMPH,Humidity,HourlyPrecipIn,Conditions,Clouds,dailyrainin,SoftwareType,DateUTC
2013-02-14 00:05:00,57.5,52.4,29.90,WNW,288,13.0,21.0,83,0.00,,,0.00,Wunderground v.1.15,2013-02-13 22:05:00,
2013-02-14 00:20:00,57.4,52.3,29.90,WNW,287,15.0,15.0,83,0.00,,,0.00,Wunderground v.1.15,2013-02-13 22:20:00,
2013-02-14 00:31:00,57.5,52.4,29.90,West,269,15.0,15.0,83,0.00,,,0.00,Wunderground v.1.15,2013-02-13 22:31:00,
2013-02-14 00:40:00,57.3,51.9,29.90,West,277,18.0,20.0,82,0.00,,,0.01,Wunderground v.1.15,2013-02-13 22:40:00,
2013-02-14 00:46:00,57.3,51.5,29.90,WNW,299,17.0,20.0,81,0.00,,,0.01,Wunderground v.1.15,2013-02-13 22:46:00,
2013-02-14 00:55:00,57.7,51.9,29.90,WNW,289,16.0,19.0,81,0.00,,,0.01,Wunderground v.1.15,2013-02-13 22:55:00,
2013-02-14 01:05:00,57.9,52.8,29.89,WNW,288,19.0,19.0,83,0.00,,,0.01,Wunderground v.1.15,2013-02-13 23:05:00,
2013-02-14 01:10:00,57.4,51.9,29.89,NW,306,21.0,27.0,82,0.00,,,0.01,Wunderground v.1.15,2013-02-13 23:10:00,
2013-02-14 01:16:00,56.5,50.7,29.90,NW,304,22.0,22.0,81,0.00,,,0.01,Wunderground v.1.15,2013-02-13 23:16:00,
2013-02-14 01:25:00,56.3,51.2,29.90,WNW,292,12.0,16.0,83,0.00,,,0.01,Wunderground v.1.15,2013-02-13 23:25:00,
2013-02-14 01:31:00,56.0,50.6,29.90,West,275,12.0,16.0,82,0.00,,,0.01,Wunderground v.1.15,2013-02-13 23:31:00,
2013-02-14 01:40:00,55.7,49.6,29.90,NW,304,14.0,17.0,80,0.00,,,0.01,Wunderground v.1.15,2013-02-13 23:40:00,
2013-02-14 01:50:00,55.6,49.5,29.89,NW,312,9.0,9.0,80,0.00,,,0.01,Wunderground v.1.15,2013-02-13 23:50:00,
2013-02-14 02:05:00,55.4,49.0,29.88,NW,321,7.0,13.0,79,0.00,,,0.01,Wunderground v.1.15,2013-02-14 00:05:00,
2013-02-14 02:16:00,55.6,48.8,29.87,North,349,9.0,14.0,78,0.00,,,0.01,Wunderground v.1.15,2013-02-14 00:16:00,
2013-02-14 02:25:00,55.7,47.9,29.88,NNW,337,8.0,8.0,75,0.00,,,0.01,Wunderground v.1.15,2013-02-14 00:25:00,
2013-02-14 02:31:00,56.0,48.2,29.88,NNW,327,7.0,8.0,75,0.00,,,0.01,Wunderground v.1.15,2013-02-14 00:31:00,
2013-02-14 02:40:00,56.1,48.3,29.89,North,355,4.0,5.0,75,0.00,,,0.01,Wunderground v.1.15,2013-02-14 00:40:00,
2013-02-14 02:46:00,56.1,48.3,29.90,WNW,295,4.0,9.0,75,0.00,,,0.01,Wunderground v.1.15,2013-02-14 00:46:00,
2013-02-14 02:55:00,55.7,48.2,29.90,SW,214,8.0,9.0,76,0.00,,,0.02,Wunderground v.1.15,2013-02-14 00:55:00,
2013-02-14 03:05:00,55.2,48.5,29.88,WSW,254,2.0,2.0,78,0.12,,,0.03,Wunderground v.1.15,2013-02-14 01:05:00,
2013-02-14 03:20:00,54.3,48.6,29.87,ESE,103,1.0,1.0,81,0.00,,,0.03,Wunderground v.1.15,2013-02-14 01:20:00,
2013-02-14 03:31:00,53.9,48.5,29.86,NE,49,3.0,3.0,82,0.00,,,0.03,Wunderground v.1.15,2013-02-14 01:31:00,
2013-02-14 03:40:00,53.8,49.1,29.86,ESE,113,2.0,3.0,84,0.00,,,0.03,Wunderground v.1.15,2013-02-14 01:40:00,
2013-02-14 03:46:00,53.8,49.1,29.86,ESE,118,1.0,3.0,84,0.00,,,0.04,Wunderground v.1.15,2013-02-14 01:46:00,
2013-02-14 03:55:00,53.4,49.0,29.86,ESE,122,3.0,3.0,85,0.08,,,0.05,Wunderground v.1.15,2013-02-14 01:55:00,
2013-02-14 04:05:00,53.0,48.9,29.86,SE,125,3.0,3.0,86,0.00,,,0.05,Wunderground v.1.15,2013-02-14 02:05:00,
2013-02-14 04:20:00,52.9,49.4,29.87,SE,141,0.0,0.0,88,0.00,,,0.06,Wunderground v.1.15,2013-02-14 02:20:00,
2013-02-14 04:30:00,52.7,49.2,29.88,SSE,153,0.0,0.0,88,0.11,,,0.06,Wunderground v.1.15,2013-02-14 02:30:00,
2013-02-14 04:40:00,52.6,49.1,29.87,SSE,148,0.0,2.0,88,0.31,,,0.09,Wunderground v.1.15,2013-02-14 02:40:00,
2013-02-14 04:46:00,52.3,49.2,29.86,ESE,109,1.0,2.0,89,0.16,,,0.10,Wunderground v.1.15,2013-02-14 02:46:00,
2013-02-14 04:55:00,52.0,49.2,29.86,ESE,106,3.0,5.0,90,0.06,,,0.10,Wunderground v.1.15,2013-02-14 02:55:00,
2013-02-14 05:05:00,51.7,49.2,29.84,SE,129,6.0,8.0,91,0.00,,,0.10,Wunderground v.1.15,2013-02-14 03:05:00,
2013-02-14 05:10:00,51.7,49.2,29.85,ESE,123,8.0,8.0,91,0.00,,,0.10,Wunderground v.1.15,2013-02-14 03:10:00,
2013-02-14 05:20:00,51.5,49.3,29.85,SE,142,8.0,8.0,92,0.00,,,0.10,Wunderground v.1.15,2013-02-14 03:20:00,
2013-02-14 05:35:00,51.3,49.1,29.84,SE,132,7.0,7.0,92,0.00,,,0.11,Wunderground v.1.15,2013-02-14 03:35:00,
2013-02-14 05:40:00,51.3,49.1,29.84,SE,136,8.0,9.0,92,0.00,,,0.11,Wunderground v.1.15,2013-02-14 03:40:00,
2013-02-14 05:46:00,51.3,49.1,29.84,ESE,115,8.0,9.0,92,0.00,,,0.11,Wunderground v.1.15,2013-02-14 03:46:00,
2013-02-14 05:55:00,51.5,49.3,29.83,ESE,109,8.0,8.0,92,0.00,,,0.11,Wunderground v.1.15,2013-02-14 03:55:00,
2013-02-14 06:05:00,51.4,49.2,29.84,ESE,121,8.0,8.0,92,0.00,,,0.11,Wunderground v.1.15,2013-02-14 04:05:00,
2013-02-14 06:10:00,51.4,49.4,29.84,SE,128,6.0,8.0,93,0.00,,,0.11,Wunderground v.1.15,2013-02-14 04:10:00,
2013-02-14 06:16:00,51.3,49.1,29.84,ESE,118,5.0,5.0,92,0.00,,,0.11,Wunderground v.1.15,2013-02-14 04:16:00,
2013-02-14 06:25:00,51.2,49.2,29.84,ESE,116,3.0,4.0,93,0.00,,,0.11,Wunderground v.1.15,2013-02-14 04:25:00,
2013-02-14 06:31:00,51.2,49.0,29.84,ESE,115,2.0,4.0,92,0.00,,,0.11,Wunderground v.1.15,2013-02-14 04:31:00,
2013-02-14 06:40:00,51.2,49.2,29.83,ESE,115,1.0,1.0,93,0.00,,,0.11,Wunderground v.1.15,2013-02-14 04:40:00,
2013-02-14 06:50:00,51.1,48.9,29.83,East,89,3.0,4.0,92,0.00,,,0.11,Wunderground v.1.15,2013-02-14 04:50:00,
2013-02-14 07:00:00,51.1,48.9,29.83,ESE,107,4.0,4.0,92,0.00,,,0.11,Wunderground v.1.15,2013-02-14 05:00:00,
2013-02-14 07:05:00,51.1,48.9,29.83,ESE,107,3.0,4.0,92,0.00,,,0.11,Wunderground v.1.15,2013-02-14 05:05:00,
2013-02-14 07:10:00,51.1,48.9,29.83,SE,132,3.0,4.0,92,0.00,,,0.11,Wunderground v.1.15,2013-02-14 05:10:00,
2013-02-14 07:20:00,51.0,48.8,29.83,ESE,118,4.0,6.0,92,0.00,,,0.11,Wunderground v.1.15,2013-02-14 05:20:00,
2013-02-14 07:35:00,51.1,48.9,29.83,SE,126,1.0,1.0,92,0.00,,,0.11,Wunderground v.1.15,2013-02-14 05:35:00,
2013-02-14 07:40:00,51.1,48.9,29.83,SE,126,0.0,1.0,92,0.00,,,0.11,Wunderground v.1.15,2013-02-14 05:40:00,
2013-02-14 07:46:00,51.1,48.9,29.83,SE,126,0.0,0.0,92,0.00,,,0.11,Wunderground v.1.15,2013-02-14 05:46:00,
2013-02-14 07:55:00,51.0,48.5,29.83,SE,126,0.0,0.0,91,0.00,,,0.11,Wunderground v.1.15,2013-02-14 05:55:00,
2013-02-14 08:05:00,51.1,48.6,29.83,SE,126,1.0,2.0,91,0.00,,,0.12,Wunderground v.1.15,2013-02-14 06:05:00,
2013-02-14 08:10:00,51.2,48.7,29.83,SE,126,2.0,2.0,91,0.00,,,0.12,Wunderground v.1.15,2013-02-14 06:10:00,
2013-02-14 08:20:00,51.4,48.9,29.83,SE,125,0.0,0.0,91,0.00,,,0.12,Wunderground v.1.15,2013-02-14 06:20:00,
2013-02-14 08:31:00,51.4,48.9,29.83,SE,125,1.0,3.0,91,0.00,,,0.12,Wunderground v.1.15,2013-02-14 06:31:00,
2013-02-14 08:40:00,51.4,48.9,29.83,ESE,123,2.0,2.0,91,0.00,,,0.12,Wunderground v.1.15,2013-02-14 06:40:00,
2013-02-14 08:50:00,51.4,48.9,29.83,ESE,119,3.0,3.0,91,0.00,,,0.12,Wunderground v.1.15,2013-02-14 06:50:00,
2013-02-14 09:01:00,51.4,48.9,29.82,ESE,114,1.0,3.0,91,0.00,,,0.12,Wunderground v.1.15,2013-02-14 07:01:00,
2013-02-14 09:10:00,51.4,48.9,29.82,East,97,3.0,3.0,91,0.00,,,0.12,Wunderground v.1.15,2013-02-14 07:10:00,
2013-02-14 09:16:00,51.5,49.0,29.82,ESE,111,3.0,7.0,91,0.00,,,0.12,Wunderground v.1.15,2013-02-14 07:16:00,
2013-02-14 09:25:00,51.5,49.0,29.82,ESE,122,7.0,10.0,91,0.00,,,0.12,Wunderground v.1.15,2013-02-14 07:25:00,
2013-02-14 09:35:00,51.7,48.9,29.81,ESE,122,7.0,7.0,90,0.00,,,0.12,Wunderground v.1.15,2013-02-14 07:35:00,
2013-02-14 09:46:00,51.9,48.8,29.81,SE,134,8.0,10.0,89,0.00,,,0.12,Wunderground v.1.15,2013-02-14 07:46:00,
2013-02-14 09:55:00,51.9,48.8,29.81,ESE,115,10.0,10.0,89,0.00,,,0.13,Wunderground v.1.15,2013-02-14 07:55:00,
2013-02-14 10:05:00,51.9,48.8,29.81,ESE,119,9.0,10.0,89,0.00,,,0.13,Wunderground v.1.15,2013-02-14 08:05:00,
2013-02-14 10:16:00,51.9,48.8,29.82,SSE,155,7.0,7.0,89,0.00,,,0.13,Wunderground v.1.15,2013-02-14 08:16:00,
2013-02-14 10:25:00,52.0,48.9,29.82,SSE,167,4.0,4.0,89,0.00,,,0.13,Wunderground v.1.15,2013-02-14 08:25:00,
2013-02-14 10:35:00,52.0,48.9,29.81,SSE,150,7.0,7.0,89,0.09,,,0.14,Wunderground v.1.15,2013-02-14 08:35:00,
2013-02-14 10:40:00,52.0,49.2,29.81,SE,129,7.0,7.0,90,0.13,,,0.15,Wunderground v.1.15,2013-02-14 08:40:00,
2013-02-14 10:45:00,51.9,49.1,29.81,ESE,120,9.0,13.0,90,0.09,,,0.15,Wunderground v.1.15,2013-02-14 08:45:00,
2013-02-14 10:55:00,51.8,49.0,29.81,SSE,159,10.0,10.0,90,0.12,,,0.17,Wunderground v.1.15,2013-02-14 08:55:00,
2013-02-14 11:01:00,51.7,48.9,29.80,ESE,117,9.0,14.0,90,0.07,,,0.17,Wunderground v.1.15,2013-02-14 09:01:00,
2013-02-14 11:10:00,51.6,49.1,29.80,SSE,153,9.0,9.0,91,0.09,,,0.18,Wunderground v.1.15,2013-02-14 09:10:00,
2013-02-14 11:16:00,51.6,49.1,29.80,SE,136,8.0,10.0,91,0.07,,,0.18,Wunderground v.1.15,2013-02-14 09:16:00,
2013-02-14 11:25:00,51.5,49.0,29.80,SE,128,7.0,8.0,91,0.07,,,0.19,Wunderground v.1.15,2013-02-14 09:25:00,
2013-02-14 11:35:00,51.2,49.0,29.79,ESE,117,8.0,9.0,92,0.09,,,0.20,Wunderground v.1.15,2013-02-14 09:35:00,
2013-02-14 11:46:00,50.7,48.2,29.79,ESE,114,10.0,10.0,91,0.06,,,0.21,Wunderground v.1.15,2013-02-14 09:46:00,
2013-02-14 11:55:00,50.6,48.1,29.80,SE,124,7.0,7.0,91,0.05,,,0.21,Wunderground v.1.15,2013-02-14 09:55:00,
2013-02-14 12:05:00,50.8,48.6,29.80,SE,126,3.0,6.0,92,0.00,,,0.22,Wunderground v.1.15,2013-02-14 10:05:00,
2013-02-14 12:20:00,50.8,48.6,29.79,ESE,114,6.0,7.0,92,0.10,,,0.24,Wunderground v.1.15,2013-02-14 10:20:00,
2013-02-14 12:31:00,50.9,48.9,29.78,ESE,109,6.0,9.0,93,0.10,,,0.25,Wunderground v.1.15,2013-02-14 10:31:00,
2013-02-14 12:40:00,50.7,48.7,29.77,ESE,109,7.0,7.0,93,0.05,,,0.25,Wunderground v.1.15,2013-02-14 10:40:00,
2013-02-14 12:50:00,50.6,48.7,29.77,SE,142,7.0,7.0,93,0.00,,,0.25,Wunderground v.1.15,2013-02-14 10:50:00,
2013-02-14 13:05:00,50.7,48.7,29.76,SE,134,8.0,11.0,93,0.00,,,0.25,Wunderground v.1.15,2013-02-14 11:05:00,
2013-02-14 13:16:00,50.6,48.7,29.76,SE,146,10.0,10.0,93,0.00,,,0.25,Wunderground v.1.15,2013-02-14 11:16:00,
2013-02-14 13:25:00,50.7,48.7,29.75,ESE,102,9.0,11.0,93,0.00,,,0.25,Wunderground v.1.15,2013-02-14 11:25:00,
2013-02-14 13:35:00,51.3,49.1,29.74,ESE,119,8.0,15.0,92,0.00,,,0.25,Wunderground v.1.15,2013-02-14 11:35:00,
2013-02-14 13:46:00,51.2,48.7,29.74,ESE,116,13.0,13.0,91,0.00,,,0.26,Wunderground v.1.15,2013-02-14 11:46:00,
2013-02-14 13:55:00,51.5,49.0,29.73,ESE,115,12.0,12.0,91,0.00,,,0.26,Wunderground v.1.15,2013-02-14 11:55:00,
2013-02-14 14:05:00,51.6,49.1,29.73,East,94,14.0,14.0,91,0.00,,,0.26,Wunderground v.1.15,2013-02-14 12:05:00,
2013-02-14 14:10:00,51.7,49.2,29.73,East,99,11.0,14.0,91,0.00,,,0.26,Wunderground v.1.15,2013-02-14 12:10:00,
2013-02-14 14:20:00,51.5,50.1,29.73,ESE,123,11.0,12.0,95,0.00,,,0.26,Wunderground v.1.15,2013-02-14 12:20:00,
2013-02-14 14:25:00,51.5,49.0,29.73,ESE,113,9.0,12.0,91,0.00,,,0.26,Wunderground v.1.15,2013-02-14 12:25:00,
2013-02-14 14:31:00,51.5,49.0,29.73,SE,126,9.0,9.0,91,0.00,,,0.26,Wunderground v.1.15,2013-02-14 12:31:00,
2013-02-14 14:40:00,51.4,48.6,29.73,ESE,111,8.0,10.0,90,0.00,,,0.26,Wunderground v.1.15,2013-02-14 12:40:00,
2013-02-14 14:50:00,51.6,48.8,29.74,SE,136,6.0,6.0,90,0.00,,,0.26,Wunderground v.1.15,2013-02-14 12:50:00,
2013-02-14 15:05:00,51.9,48.8,29.73,ESE,116,5.0,7.0,89,0.00,,,0.26,Wunderground v.1.15,2013-02-14 13:05:00,
2013-02-14 15:10:00,51.9,48.8,29.73,SE,126,6.0,10.0,89,0.00,,,0.26,Wunderground v.1.15,2013-02-14 13:10:00,
2013-02-14 15:16:00,51.9,48.8,29.73,East,99,6.0,6.0,89,0.00,,,0.26,Wunderground v.1.15,2013-02-14 13:16:00,
2013-02-14 15:25:00,52.0,48.9,29.73,SE,132,5.0,5.0,89,0.00,,,0.26,Wunderground v.1.15,2013-02-14 13:25:00,
2013-02-14 15:31:00,52.0,49.2,29.73,SE,126,4.0,6.0,90,0.00,,,0.26,Wunderground v.1.15,2013-02-14 13:31:00,
2013-02-14 15:40:00,52.0,49.2,29.73,ESE,115,2.0,4.0,90,0.00,,,0.26,Wunderground v.1.15,2013-02-14 13:40:00,
2013-02-14 15:50:00,51.6,48.8,29.72,ENE,71,4.0,5.0,90,0.00,,,0.26,Wunderground v.1.15,2013-02-14 13:50:00,
2013-02-14 16:01:00,51.0,48.2,29.72,ESE,111,6.0,6.0,90,0.00,,,0.27,Wunderground v.1.15,2013-02-14 14:01:00,
2013-02-14 16:10:00,50.8,48.0,29.72,East,87,6.0,6.0,90,0.00,,,0.27,Wunderground v.1.15,2013-02-14 14:10:00,
2013-02-14 16:15:00,50.8,48.0,29.72,East,91,5.0,5.0,90,0.00,,,0.27,Wunderground v.1.15,2013-02-14 14:15:00,
2013-02-14 16:25:00,50.7,47.9,29.72,ESE,108,6.0,9.0,90,0.00,,,0.27,Wunderground v.1.15,2013-02-14 14:25:00,
2013-02-14 16:30:00,50.5,47.7,29.72,East,83,7.0,12.0,90,0.00,,,0.28,Wunderground v.1.15,2013-02-14 14:30:00,
2013-02-14 16:40:00,50.4,47.6,29.72,ESE,106,8.0,8.0,90,0.00,,,0.28,Wunderground v.1.15,2013-02-14 14:40:00,
2013-02-14 16:45:00,50.3,47.5,29.72,East,83,9.0,9.0,90,0.00,,,0.28,Wunderground v.1.15,2013-02-14 14:45:00,
2013-02-14 16:55:00,50.2,47.4,29.72,East,94,8.0,8.0,90,0.00,,,0.28,Wunderground v.1.15,2013-02-14 14:55:00,
2013-02-14 17:05:00,50.3,47.5,29.72,East,101,5.0,5.0,90,0.00,,,0.28,Wunderground v.1.15,2013-02-14 15:05:00,
2013-02-14 17:10:00,50.3,47.5,29.72,ESE,113,4.0,5.0,90,0.00,,,0.28,Wunderground v.1.15,2013-02-14 15:10:00,
2013-02-14 17:15:00,50.2,47.4,29.72,ESE,110,5.0,5.0,90,0.00,,,0.28,Wunderground v.1.15,2013-02-14 15:15:00,
2013-02-14 17:25:00,50.3,47.5,29.72,East,80,3.0,3.0,90,0.00,,,0.28,Wunderground v.1.15,2013-02-14 15:25:00,
2013-02-14 17:30:00,50.2,47.4,29.71,East,84,3.0,4.0,90,0.00,,,0.28,Wunderground v.1.15,2013-02-14 15:30:00,
2013-02-14 17:40:00,50.1,47.3,29.71,ENE,74,4.0,6.0,90,0.00,,,0.28,Wunderground v.1.15,2013-02-14 15:40:00,
2013-02-14 17:50:00,49.8,47.3,29.72,ENE,74,5.0,6.0,91,0.00,,,0.28,Wunderground v.1.15,2013-02-14 15:50:00,
2013-02-14 18:01:00,49.7,47.2,29.72,East,92,6.0,6.0,91,0.00,,,0.28,Wunderground v.1.15,2013-02-14 16:01:00,
2013-02-14 18:10:00,49.7,47.2,29.71,ENE,78,4.0,10.0,91,0.00,,,0.28,Wunderground v.1.15,2013-02-14 16:10:00,
2013-02-14 18:20:00,49.6,47.1,29.71,ENE,68,3.0,6.0,91,0.00,,,0.28,Wunderground v.1.15,2013-02-14 16:20:00,
2013-02-14 18:30:00,49.3,46.8,29.72,ESE,107,6.0,6.0,91,0.00,,,0.28,Wunderground v.1.15,2013-02-14 16:30:00,
2013-02-14 18:40:00,49.3,46.8,29.72,ENE,74,4.0,10.0,91,0.00,,,0.28,Wunderground v.1.15,2013-02-14 16:40:00,
2013-02-14 18:50:00,49.3,46.8,29.72,East,85,5.0,11.0,91,0.00,,,0.28,Wunderground v.1.15,2013-02-14 16:50:00,
2013-02-14 19:00:00,49.2,46.7,29.71,ENE,76,6.0,9.0,91,0.00,,,0.28,Wunderground v.1.15,2013-02-14 17:00:00,
2013-02-14 19:10:00,49.1,46.9,29.71,East,79,8.0,8.0,92,0.00,,,0.29,Wunderground v.1.15,2013-02-14 17:10:00,
2013-02-14 19:16:00,49.1,46.9,29.71,East,86,6.0,10.0,92,0.00,,,0.29,Wunderground v.1.15,2013-02-14 17:16:00,
2013-02-14 19:25:00,49.1,46.9,29.71,ENE,74,7.0,10.0,92,0.00,,,0.29,Wunderground v.1.15,2013-02-14 17:25:00,
2013-02-14 19:30:00,49.1,46.9,29.71,NE,51,7.0,7.0,92,0.00,,,0.30,Wunderground v.1.15,2013-02-14 17:30:00,
2013-02-14 19:40:00,49.1,46.9,29.71,East,87,6.0,6.0,92,0.00,,,0.30,Wunderground v.1.15,2013-02-14 17:40:00,
2013-02-14 19:50:00,49.1,46.9,29.71,ENE,68,6.0,6.0,92,0.00,,,0.30,Wunderground v.1.15,2013-02-14 17:50:00,
2013-02-14 19:55:00,49.1,46.9,29.71,NE,51,5.0,6.0,92,0.00,,,0.30,Wunderground v.1.15,2013-02-14 17:55:00,
2013-02-14 20:00:00,49.2,47.0,29.71,East,94,5.0,6.0,92,0.00,,,0.30,Wunderground v.1.15,2013-02-14 18:00:00,
2013-02-14 20:10:00,49.2,47.0,29.71,NE,49,6.0,6.0,92,0.00,,,0.30,Wunderground v.1.15,2013-02-14 18:10:00,
2013-02-14 20:15:00,49.2,46.7,29.71,ENE,76,6.0,6.0,91,0.00,,,0.30,Wunderground v.1.15,2013-02-14 18:15:00,
2013-02-14 20:25:00,49.3,46.8,29.71,ENE,67,6.0,7.0,91,0.00,,,0.30,Wunderground v.1.15,2013-02-14 18:25:00,
2013-02-14 20:35:00,49.4,46.9,29.71,NNE,32,5.0,5.0,91,0.00,,,0.30,Wunderground v.1.15,2013-02-14 18:35:00,
2013-02-14 20:50:00,49.5,47.0,29.71,ESE,110,4.0,6.0,91,0.00,,,0.30,Wunderground v.1.15,2013-02-14 18:50:00,
2013-02-14 20:55:00,49.6,47.1,29.71,ENE,63,4.0,10.0,91,0.00,,,0.30,Wunderground v.1.15,2013-02-14 18:55:00,
2013-02-14 21:01:00,49.6,46.8,29.71,East,86,5.0,5.0,90,0.00,,,0.30,Wunderground v.1.15,2013-02-14 19:01:00,
2013-02-14 21:10:00,49.7,46.9,29.71,NE,40,5.0,6.0,90,0.00,,,0.30,Wunderground v.1.15,2013-02-14 19:10:00,
2013-02-14 21:20:00,49.9,47.1,29.71,East,88,4.0,5.0,90,0.00,,,0.30,Wunderground v.1.15,2013-02-14 19:20:00,
2013-02-14 21:25:00,50.0,46.9,29.71,ENE,67,5.0,5.0,89,0.00,,,0.30,Wunderground v.1.15,2013-02-14 19:25:00,
2013-02-14 21:30:00,50.1,47.0,29.71,NNE,19,4.0,4.0,89,0.00,,,0.30,Wunderground v.1.15,2013-02-14 19:30:00,
2013-02-14 21:40:00,50.3,47.2,29.72,ENE,59,4.0,6.0,89,0.00,,,0.30,Wunderground v.1.15,2013-02-14 19:40:00,
2013-02-14 21:50:00,50.2,47.1,29.72,ENE,72,4.0,4.0,89,0.00,,,0.30,Wunderground v.1.15,2013-02-14 19:50:00,
2013-02-14 22:00:00,50.3,47.2,29.71,ENE,73,2.0,4.0,89,0.00,,,0.30,Wunderground v.1.15,2013-02-14 20:00:00,
2013-02-14 22:10:00,50.3,46.9,29.71,East,83,2.0,2.0,88,0.00,,,0.30,Wunderground v.1.15,2013-02-14 20:10:00,
2013-02-14 22:20:00,50.4,47.3,29.71,NE,49,1.0,4.0,89,0.00,,,0.30,Wunderground v.1.15,2013-02-14 20:20:00,
2013-02-14 22:25:00,50.5,47.4,29.71,NNE,28,2.0,4.0,89,0.00,,,0.30,Wunderground v.1.15,2013-02-14 20:25:00,
2013-02-14 22:30:00,50.7,47.6,29.71,ENE,61,2.0,2.0,89,0.00,,,0.30,Wunderground v.1.15,2013-02-14 20:30:00,
2013-02-14 22:40:00,50.7,47.6,29.70,NE,49,2.0,3.0,89,0.00,,,0.30,Wunderground v.1.15,2013-02-14 20:40:00,
2013-02-14 22:50:00,50.6,47.5,29.70,ENE,58,3.0,3.0,89,0.00,,,0.30,Wunderground v.1.15,2013-02-14 20:50:00,
2013-02-14 22:55:00,50.5,47.7,29.70,ENE,75,3.0,6.0,90,0.00,,,0.30,Wunderground v.1.15,2013-02-14 20:55:00,
2013-02-14 23:00:00,50.3,47.5,29.70,North,5,3.0,6.0,90,0.00,,,0.30,Wunderground v.1.15,2013-02-14 21:00:00,
2013-02-14 23:10:00,50.2,47.1,29.70,ENE,57,4.0,4.0,89,0.00,,,0.30,Wunderground v.1.15,2013-02-14 21:10:00,
2013-02-14 23:15:00,50.2,47.1,29.70,NE,39,3.0,4.0,89,0.00,,,0.30,Wunderground v.1.15,2013-02-14 21:15:00,
2013-02-14 23:25:00,50.2,47.4,29.70,ENE,61,2.0,2.0,90,0.00,,,0.30,Wunderground v.1.15,2013-02-14 21:25:00,
2013-02-14 23:35:00,50.4,47.6,29.70,NE,39,1.0,1.0,90,0.00,,,0.30,Wunderground v.1.15,2013-02-14 21:35:00,
2013-02-14 23:45:00,50.5,47.7,29.69,NNE,15,1.0,3.0,90,0.00,,,0.30,Wunderground v.1.15,2013-02-14 21:45:00,
2013-02-14 23:55:00,50.6,47.8,29.70,ENE,63,2.0,2.0,90,0.00,,,0.30,Wunderground v.1.15,2013-02-14 21:55:00,